Location: Domont
(49.0278°N, 2.3264°E)
Time: 03:38:18
(UTC+00:00)

Envisat - Visible Passes

Search period start: 27 January 2022 00:00
Search period end: 06 February 2022 00:00
Orbit: 764 x 766 km, 98.2° (Epoch: 26 January)

Date Brightness Start Highest point End Pass type
(mag) Time Alt. Az. Time Alt. Az. Time Alt. Az.
27 Jan 5.2 03:43:52 10° NE 03:47:47 22° E 03:51:40 10° SE visible
27 Jan 3.0 05:22:10 10° N 05:27:10 58° WNW 05:32:08 10° SSW visible
28 Jan 6.0 03:09:38 10° ENE 03:10:23 10° E 03:11:08 10° E visible
28 Jan 3.1 04:45:14 10° NNE 04:50:20 72° ESE 04:55:24 10° S visible
28 Jan 4.3 06:25:14 10° NNW 06:28:49 20° WNW 06:32:24 10° WSW visible
29 Jan 4.4 04:08:38 10° NNE 04:13:18 35° E 04:17:56 10° SSE visible
29 Jan 3.5 05:47:41 10° N 05:52:18 36° WNW 05:56:55 10° SW visible
30 Jan 5.5 03:32:39 10° NE 03:36:03 18° E 03:39:26 10° SE visible
30 Jan 2.9 05:10:31 10° N 05:15:36 71° WNW 05:20:39 10° SSW visible
31 Jan 3.5 04:33:40 10° NNE 04:38:42 58° E 04:43:42 10° S visible
31 Jan 4.0 06:13:22 10° N 06:17:21 24° WNW 06:21:20 10° WSW visible
31 Jan 6.4 17:35:55 10° W 17:37:07 11° W 17:38:20 10° WNW visible
01 Feb 4.8 03:57:12 10° NE 04:01:36 29° E 04:05:58 10° SSE visible
01 Feb 3.3 05:35:58 10° N 05:40:47 44° WNW 05:45:35 10° SW visible
02 Feb 5.8 03:21:38 10° NE 03:24:18 14° E 03:26:57 10° ESE visible
02 Feb 2.9 04:58:54 10° NNE 05:04:01 87° WNW 05:09:06 10° SSW visible
02 Feb 4.5 06:39:22 10° NNW 06:42:19 16° NW 06:45:14 10° W visible
03 Feb 3.9 04:22:09 10° NNE 04:27:04 46° E 04:31:56 10° S visible
03 Feb 3.8 06:01:34 10° N 06:05:52 28° WNW 06:10:10 10° WSW visible
03 Feb 6.1 17:22:48 10° WSW 17:25:21 14° W 17:27:55 10° NW visible
04 Feb 5.1 03:45:52 10° NE 03:49:54 23° E 03:53:54 10° SE visible
04 Feb 3.0 05:24:17 10° N 05:29:14 54° WNW 05:34:11 10° SW visible
05 Feb 6.0 03:11:04 10° ENE 03:12:31 11° E 03:13:59 10° E visible
05 Feb 3.1 04:47:18 10° NNE 04:52:25 76° ESE 04:57:30 10° S visible
05 Feb 4.3 06:27:24 10° NNW 06:30:52 19° WNW 06:34:19 10° W visible
